Terminal Aerodrome Forecast
Issued by NWS Shreveport, LA

Home | Current Version | Previous Version | Text Only | Print | Product List | Glossary On
Versions: 1 2 3 4 5 6 7 8 9 10 11 12 13 14 15 16 17 18 19 20 21
000
FTUS44 KSHV 270100 AAA
TAFSHV
TAF AMD
KSHV 270117Z 2701/2724 35010KT P6SM SCT020 OVC100
     FM270700 03008KT P6SM OVC025
     FM271500 05012G18KT P6SM BKN025 BKN080=

USA.gov is the U.S. government's official web portal to all federal, state and local government web resources and services.